📊 Raw Sensor Data
Showing records 37426 to 37450 of 84,913 total
| ID | Distance (ft) | Battery V | Battery A | Int Temp (°F) | Int Humid (%) | Ext Temp (°F) | Solar V | RSSI | SNR | Time Stamp |
|---|---|---|---|---|---|---|---|---|---|---|
| 47500 | 15.3 | 3.92 | 0 | 84 | 42 | 78 | 5.10 | -70 | 8 | 07/27/2025 01:15 PM |
| 47499 | 15.3 | 3.92 | 5 | 83 | 42 | 76 | 5.10 | -70 | 8 | 07/27/2025 01:00 PM |
| 47498 | 15.3 | 3.92 | 5 | 81 | 43 | 74 | 5.10 | -69 | 7 | 07/27/2025 12:45 PM |
| 47497 | 15.3 | 3.92 | 5 | 80 | 43 | 74 | 5.10 | -72 | 8 | 07/27/2025 12:30 PM |
| 47496 | 15.3 | 3.92 | 0 | 79 | 43 | 75 | 5.10 | -71 | 7 | 07/27/2025 12:15 PM |
| 47495 | 15.3 | 3.92 | 5 | 79 | 43 | 75 | 5.10 | -71 | 7 | 07/27/2025 12:00 PM |
| 47494 | 15.3 | 3.99 | 5 | 78 | 43 | 74 | 5.10 | -71 | 7 | 07/27/2025 11:45 AM |
| 47493 | 15.3 | 3.92 | 0 | 77 | 43 | 75 | 5.10 | -70 | 8 | 07/27/2025 11:30 AM |
| 47492 | 15.3 | 4.01 | 0 | 76 | 43 | 76 | 5.10 | -72 | 8 | 07/27/2025 11:15 AM |
| 47491 | 15.3 | 3.92 | 0 | 75 | 42 | 76 | 5.10 | -70 | 8 | 07/27/2025 11:00 AM |
| 47490 | 15.4 | 3.92 | 0 | 74 | 42 | 75 | 5.10 | -71 | 8 | 07/27/2025 10:45 AM |
| 47489 | 15.4 | 3.92 | 5 | 73 | 42 | 70 | 5.10 | -73 | 8 | 07/27/2025 10:30 AM |
| 47488 | 15.4 | 3.92 | 0 | 71 | 43 | 71 | 5.10 | -71 | 7 | 07/27/2025 10:15 AM |
| 47487 | 15.3 | 3.92 | 5 | 70 | 43 | 69 | 5.10 | -72 | 8 | 07/27/2025 10:00 AM |
| 47486 | 15.4 | 3.92 | 0 | 69 | 43 | 69 | 5.10 | -70 | 8 | 07/27/2025 09:45 AM |
| 47485 | 15.3 | 3.92 | 0 | 69 | 43 | 69 | 5.10 | -71 | 8 | 07/27/2025 09:30 AM |
| 47484 | 15.3 | 3.92 | 5 | 68 | 43 | 70 | 5.10 | -69 | 8 | 07/27/2025 09:15 AM |
| 47483 | 15.3 | 3.92 | 5 | 66 | 44 | 69 | 5.10 | -70 | 8 | 07/27/2025 09:00 AM |
| 47482 | 15.3 | 3.92 | 0 | 66 | 44 | 66 | 5.10 | -69 | 8 | 07/27/2025 08:45 AM |
| 47481 | 15.3 | 3.92 | 5 | 65 | 44 | 70 | 5.10 | -71 | 7 | 07/27/2025 08:30 AM |
| 47480 | 15.2 | 3.92 | 0 | 64 | 43 | 64 | 5.10 | -70 | 8 | 07/27/2025 08:15 AM |
| 47479 | 15.2 | 3.93 | 0 | 63 | 43 | 68 | 5.10 | -69 | 8 | 07/27/2025 08:00 AM |
| 47478 | 15.2 | 4.11 | 5 | 62 | 42 | 67 | 5.10 | -69 | 8 | 07/27/2025 07:45 AM |
| 47477 | 15.1 | 4.01 | 38 | 60 | 43 | 65 | 4.50 | -72 | 9 | 07/27/2025 07:30 AM |
| 47476 | 15.0 | 3.91 | -6 | 58 | 43 | 60 | 4.50 | -70 | 8 | 07/27/2025 07:15 AM |